Regional Weather Roundup
Issued by NWS

Home | Current Version | Previous Version | Text Only | Print | Product List | Glossary Off
Versions: 1 2 3 4 5 6 7 8 9 10 11 12 13 14 15 16 17 18 19 20 21 22 23 24 25 26 27 28 29 30 31 32 33 34 35 36 37 38 39 40 41 42 43 44 45 46 47 48 49 50

000
ASUS45 KABQ 181510
RWRNM
WEATHER ROUNDUP FOR NEW MEXICO
NATIONAL WEATHER SERVICE ALBUQUERQUE NM
800 AM MST THU DEC 18 2014

NOTE: "FAIR" MEANS FEW OR NO CLOUDS BELOW 12,000 FEET AGL WITH NO
       SIGNIFICANT WEATHER OR OBSTRUCTIONS TO VISION.

      THIS PRODUCT IS RELEASED AS TWO VERSIONS.  ONE VERSION NEAR
      THE TOP OF THE HOUR CONTAINING PRELIMINARY DATA FROM ALBUQUERQUE
      AND OTHER STATIONS.  A FINAL VERSION WITH ADDITIONAL DATA IS
      ISSUED ABOUT 10 MINUTES AFTER THE HOUR.

NMZ501-503-504-510>518-181600-
NORTHWEST PLATEAU/NORTHCENTRAL MOUNTAINS

CITY           SKY/WX    TMP DP  RH WIND       PRES   REMARKS
FARMINGTON     CLOUDY    33  31  92 NE3       30.13R FOG
LOS ALAMOS     PTCLDY    28  23  82 CALM      30.11S
SANTA FE       PTCLDY    24  20  84 NW3       30.10S
TAOS           CLOUDY    27  25  93 N3        30.11S
ANGEL FIRE     FAIR      24  21  87 W8        30.09R WCI  16

$$
NMZ402-403-502-505>509-181600-
WESTCENTRAL MOUNTAINS/SOUTHWEST MOUNTAINS

CITY           SKY/WX    TMP DP  RH WIND       PRES   REMARKS
GALLUP         MOCLDY    31  26  82 NE3       30.14S
GRANTS         CLOUDY    26  24  93 NW3       30.16S
SILVER CITY    CLOUDY    36  32  87 W5        30.17S WCI  32

$$
NMZ407-409-411-412-181600-
SOUTHERN DESERTS

CITY           SKY/WX    TMP DP  RH WIND       PRES   REMARKS
LORDSBURG      LGT RAIN  37  37 100 CALM      30.16S
DEMING         CLOUDY    39  38  96 NW5       30.16R
LAS CRUCES     CLEAR     40  34  81 NW7       30.16R WCI  35
HOLLOMAN AFB   PTCLDY    38  33  84 S5        30.13R WCI  34
ALAMOGORDO     PTCLDY    39  32  75 S3        30.14R
T OR C         CLEAR     39  29  67 W3        30.14R

$$
NMZ519>523-181600-
CENTRAL VALLEYS/CENTRAL HIGHLANDS

CITY           SKY/WX    TMP DP  RH WIND       PRES   REMARKS
ALBUQUERQUE    PTCLDY    30  26  85 E7        30.15S WCI  23
DOUBLE EAGLE   PTCLDY    28  25  86 NW5       30.14S WCI  23
MORIARTY ARPT  FAIR      31  26  79 W10       30.12R WCI  23
CLINES CORNERS CLEAR     24  20  84 NW9       30.08R WCI  14
BELEN          FAIR      30  28  92 CALM      30.15S
SOCORRO        MOCLDY    36  29  77 CALM      30.15R

$$
NMZ524>526-539-540-181600-
SOUTHCENTRAL MOUNTAINS

CITY           SKY/WX    TMP DP  RH WIND       PRES   REMARKS
RUIDOSO        CLEAR     32  27  80 NE3       30.14R

$$
NMZ527>531-181600-
NORTHEAST HIGHLANDS/NORTHEAST PLAINS

CITY           SKY/WX    TMP DP  RH WIND       PRES   REMARKS
LAS VEGAS      PTCLDY    24  20  84 NE3       30.05R
RATON          CLEAR     21  17  84 NE8       30.04R WCI  11
CLAYTON        CLEAR     28  23  81 NE3       30.05R

$$
NMZ532>537-181600-
EASTCENTRAL PLAINS

CITY           SKY/WX    TMP DP  RH WIND       PRES   REMARKS
TUCUMCARI      FOG       31  29  92 NE5       30.09R VSB<1/4 WCI  26
CANNON AFB     SUNNY     37  27  68 NW14      30.07S WCI  28
CLOVIS AIRPORT SUNNY     34  27  75 W8        30.08R WCI  27

$$
NMZ028-029-538-181600-
SOUTHEAST PLAINS

CITY           SKY/WX    TMP DP  RH WIND       PRES   REMARKS
ROSWELL        MOSUNNY   36  28  73 W6        30.12R WCI  31
ARTESIA        MOSUNNY   34  30  86 NW6       30.13S WCI  29
CARLSBAD       PTSUNNY   50  36  58 SW8       30.11R
HOBBS          SUNNY     41  32  70 CALM      30.13R


$$


USA.gov is the U.S. government's official web portal to all federal, state and local government web resources and services.